Location: Unspecified
(0.0000°N, 0.0000°E)
Time: 01:42:16
(UTC+00:00)

Vanguard 2 - Visible Passes

Search period start: 17 October 2017 00:00
Search period end: 27 October 2017 00:00
Orbit: 554 x 2939 km, 32.9° (Epoch: 16 October)

Date Brightness Start Highest point End Pass type
(mag) Time Alt. Az. Time Alt. Az. Time Alt. Az.
17 Oct 11.5 01:19:29 15° S 01:24:59 18° SSE 01:35:36 10° ESE visible
17 Oct 11.1 03:24:25 10° SW 03:40:18 44° SSE 03:55:52 10° E visible
17 Oct 9.5 18:57:58 10° W 19:01:51 25° SSW 19:07:08 10° SSE visible
18 Oct 11.4 01:37:05 17° S 01:44:26 23° SSE 01:57:05 10° ESE visible
18 Oct 10.8 03:42:20 10° SW 03:59:04 55° SE 04:15:08 10° ENE visible
18 Oct 10.1 19:17:32 10° WSW 19:20:33 15° SSW 19:24:15 10° SSE visible
19 Oct 11.3 01:54:56 19° SSW 02:03:36 29° SSE 02:17:57 10° E visible
19 Oct 10.6 04:00:22 10° SW 04:17:41 68° SE 04:34:01 10° ENE visible
20 Oct 11.7 00:11:29 12° SE 00:11:29 12° SE 00:14:30 10° SE visible
20 Oct 11.1 02:12:59 21° SSW 02:22:30 37° SSE 02:38:12 10° E visible
20 Oct 10.4 04:18:34 10° SW 04:36:12 84° SE 04:52:35 10° ENE visible
21 Oct 11.5 00:29:43 17° SE 00:29:43 17° SE 00:36:52 10° ESE visible
21 Oct 10.8 02:31:14 25° SSW 02:41:12 47° SE 02:57:54 10° ENE visible
21 Oct 10.3 04:37:00 10° WSW 04:54:40 80° NW 05:10:52 10° NE visible
21 Oct 9.9 18:03:54 10° WSW 18:06:14 14° SSW 18:08:53 10° S visible
22 Oct 11.3 00:48:05 23° SE 00:48:05 23° SE 00:58:28 10° ESE visible
22 Oct 10.5 02:49:37 28° SSW 02:59:45 60° SE 03:17:07 10° ENE visible
22 Oct 10.4 04:55:42 10° WSW 05:13:08 65° NW 05:28:57 10° NE visible
23 Oct 11.1 01:06:33 30° SE 01:06:33 30° SE 01:19:19 10° E visible
23 Oct 10.3 03:08:05 31° SW 03:18:13 75° SE 03:35:58 10° ENE visible
23 Oct 10.5 05:14:47 10° WSW 05:31:41 51° NW 05:46:52 10° NE visible
24 Oct 10.8 01:25:01 39° SE 01:25:01 39° SE 01:39:32 10° E visible
24 Oct 10.2 03:26:33 32° SW 03:36:41 89° NNW 03:54:29 10° NE visible
25 Oct 10.5 01:43:27 50° SE 01:43:27 50° SE 01:59:09 10° ENE visible
25 Oct 10.2 03:44:59 31° WSW 03:55:10 73° NW 04:12:45 10° NE visible
26 Oct 10.2 02:01:48 63° SE 02:01:48 63° SE 02:18:19 10° ENE visible
26 Oct 10.3 04:03:20 28° W 04:13:45 59° NW 04:30:50 10° NE visible
